Probability
0 0 0 0 0 0 0 0 0 0 0 0 0 0 0 0 1 2 4 11 19 18 13 14 19 19 14 10 7 6 6 4 1 0 0 1 1 1 2 3 3 2 1 0 1 0 0 0 0
0 0 0 0 0 0 0 0 0 0 0 0 0 0 0 0 1 3 5 10 15 13 10 12 17 18 14 8 5 5 4 3 1 0 0 1 2 3 4 4 4 3 2 2 2 1 1 1 1
0 0 0 0 0 0 0 0 0 0 0 0 0 0 0 0 1 3 6 9 11 10 10 12 16 17 13 7 4 4 4 3 2 1 1 1 2 4 5 5 6 5 4 4 3 3 3 3 3
0 0 0 0 0 0 0 0 0 0 0 0 0 0 0 0 1 2 5 9 12 13 12 14 16 17 14 10 6 5 5 4 4 3 2 0 1 3 4 4 4 4 4 3 2 2 3 4 4
0 0 0 0 0 0 0 0 0 0 0 0 0 0 0 0 1 1 4 9 13 14 13 15 18 19 16 13 11 8 6 5 5 4 2 1 1 2 2 3 3 3 3 1 0 0 1 2 3
0 0 0 0 0 0 0 0 0 0 0 0 0 0 0 0 1 2 5 9 13 14 12 11 14 16 15 13 11 9 6 3 3 4 3 2 2 2 2 3 3 3 1 0 0 0 0 0 1
0 0 0 0 0 0 0 0 0 0 0 0 0 0 0 0 1 4 6 10 12 12 8 5 6 8 10 8 6 5 4 2 2 3 3 3 2 2 2 3 4 4 2 0 0 1 1 0 0
0 0 0 0 0 0 0 0 0 0 0 0 0 0 0 0 1 4 7 10 10 8 5 2 1 2 3 3 1 1 1 1 1 2 2 2 1 1 2 2 4 5 3 1 1 2 2 1 0
0 0 0 0 0 0 0 0 0 0 0 0 0 1 1 1 1 2 5 7 8 6 4 3 1 1 2 2 1 1 0 0 0 1 1 1 1 0 1 1 3 5 6 4 3 5 4 1 0
0 0 0 0 0 0 0 0 0 0 0 0 1 3 3 2 1 2 4 4 5 5 4 3 2 1 2 3 3 2 1 1 1 0 1 2 2 1 0 1 2 4 6 5 5 5 4 1 0
0 0 0 0 0 0 0 0 0 0 0 0 1 2 3 2 2 2 2 2 2 3 3 3 3 2 2 3 2 2 2 2 2 1 2 3 4 3 2 2 2 2 3 4 4 4 2 0 0
0 0 0 0 0 0 0 0 0 0 0 0 0 1 1 1 1 1 1 1 1 2 3 3 3 3 2 1 1 1 2 2 2 2 3 4 5 5 5 4 2 2 3 2 2 1 0 0 0
0 0 0 0 0 0 0 0 0 0 0 0 0 0 0 0 0 0 0 0 1 2 3 3 3 3 3 1 0 0 1 1 1 1 2 3 5 6 5 4 3 4 4 2 1 0 0 0 0
0 0 0 0 0 0 0 0 0 0 0 0 0 0 0 0 0 0 0 0 1 2 2 3 3 3 3 2 1 0 0 0 0 0 1 1 3 4 4 3 3 4 3 3 2 1 0 0 0
0 0 0 0 0 0 0 0 0 0 0 0 0 0 0 0 0 0 0 0 0 1 1 1 2 2 2 2 2 1 0 0 0 0 0 0 1 2 2 3 3 3 3 3 3 2 1 0 0
0 0 0 0 0 0 0 0 0 0 0 0 0 0 0 0 0 0 0 0 0 0 0 0 1 1 1 1 1 1 0 0 0 0 0 0 0 0 1 1 2 3 3 3 4 3 2 1 0
0 0 0 0 0 0 0 0 0 0 0 0 0 0 0 0 0 0 0 0 0 0 0 0 0 0 0 0 0 0 0 0 0 0 0 0 0 0 0 0 1 2 3 3 3 3 3 2 1
0 0 0 0 0 0 0 0 0 0 0 0 0 0 0 0 0 0 0 0 0 0 0 0 0 0 0 0 0 0 0 0 0 0 0 0 0 0 0 0 0 1 2 3 3 4 4 3 3
0 0 0 0 0 0 0 0 0 0 0 0 0 0 0 0 0 0 0 0 0 0 0 0 0 0 0 0 0 0 0 0 0 0 0 0 0 0 0 0 0 0 1 2 3 3 4 3 3
0 0 0 0 0 0 0 0 0 0 0 0 0 0 0 0 0 0 0 0 0 0 0 0 0 0 0 0 0 0 0 0 0 0 0 0 0 0 0 0 0 0 0 1 2 3 3 3 3
0 0 0 0 0 0 0 0 0 0 0 0 0 0 0 0 0 0 0 0 0 0 0 0 0 0 0 0 0 0 0 0 0 0 0 0 0 0 0 0 0 0 0 0 1 2 3 3 3
0 0 0 0 0 0 0 0 0 0 0 0 0 0 0 0 0 0 0 0 0 0 0 0 0 0 0 0 0 0 0 0 0 0 0 0 0 0 0 0 0 0 0 0 0 1 2 3 3
0 0 0 0 0 0 0 0 0 0 0 0 0 0 0 0 0 0 0 0 0 0 0 0 0 0 0 0 0 0 0 0 0 0 0 0 0 0 0 0 0 0 0 0 0 0 1 2 3
0 0 0 0 0 0 0 0 0 0 0 0 0 0 0 0 0 0 0 0 0 0 0 0 0 0 0 0 0 0 0 0 0 0 0 0 0 0 0 0 0 0 0 0 0 0 0 1 2
0 0 0 0 0 0 0 0 0 0 0 0 0 0 0 0 0 0 0 0 0 0 0 0 0 0 0 0 0 0 0 0 0 0 0 0 0 0 0 0 0 0 0 0 0 0 0 0 1
0 0 0 0 0 0 0 0 0 0 0 0 0 0 0 0 0 0 0 0 0 0 0 0 0 0 0 0 0 0 0 0 0 0 0 0 0 0 0 0 0 0 0 0 0 0 0 0 0
0 0 0 0 0 0 0 0 0 0 0 0 0 0 0 0 0 0 0 0 0 0 0 0 0 0 0 0 0 0 0 0 0 0 0 0 0 0 0 0 0 0 0 0 0 0 0 0 0
0 0 0 0 0 0 0 0 0 0 0 0 0 0 0 0 0 0 0 0 0 0 0 0 0 0 0 0 0 0 0 0 0 0 0 0 0 0 0 0 0 0 0 0 0 0 0 0 0
0 0 0 0 0 0 0 0 0 0 0 0 0 0 0 0 0 0 0 0 0 0 0 0 0 0 0 0 0 0 0 0 0 0 0 0 0 0 0 0 0 0 0 0 0 0 0 0 0
0 0 0 0 0 0 0 0 0 0 0 0 0 0 0 0 0 0 0 0 0 0 0 0 0 0 0 0 0 0 0 0 0 0 0 0 0 0 0 0 0 0 0 0 0 0 0 0 0
Wind_Speed
8 10 8 3 3 5 8 8 3 2 3 5 6 5 5 7 6 9 4 7 11 12 11 11 12 12 12 12 12 11 11 11 10 10 10 10 10 10 10 9 9 9 8 8 8 8 7 7 7
9 8 5 3 4 6 8 8 4 3 6 5 4 3 4 8 8 8 5 7 11 12 10 10 12 12 12 12 12 12 11 11 11 10 10 10 10 10 10 9 9 9 9 8 8 7 7 7 7
11 8 4 4 5 7 4 3 5 7 8 4 2 3 4 6 8 6 6 8 10 11 10 11 12 13 12 12 12 12 11 11 11 11 10 10 10 10 10 10 9 9 9 9 9 8 7 7 6
6 4 4 6 11 8 4 4 7 7 4 3 4 4 6 6 5 7 8 9 11 11 11 10 13 13 12 12 12 12 12 11 11 11 11 11 10 10 10 10 9 9 9 9 9 9 8 7 6
4 4 6 7 12 8 3 5 5 4 5 5 4 5 6 5 9 9 7 9 10 11 10 10 13 13 13 12 12 12 11 11 11 10 10 10 10 10 10 9 9 9 9 9 9 8 8 8 7
4 4 6 9 11 8 3 3 4 4 4 5 5 5 6 6 7 7 7 8 10 11 11 10 13 13 13 12 12 11 11 11 10 10 9 9 9 10 10 9 9 9 8 8 8 8 8 7 7
5 4 8 10 7 6 5 5 5 4 4 5 5 5 7 7 7 7 7 8 9 10 10 8 8 9 12 12 12 11 11 10 10 9 9 8 8 9 9 9 9 8 7 7 7 6 6 6 6
4 4 8 9 8 4 3 4 3 3 2 2 3 4 7 9 7 7 7 7 8 8 8 8 7 7 7 7 10 10 10 9 9 8 6 6 7 7 8 7 7 7 7 6 6 5 5 5 5
4 5 7 7 6 3 4 3 2 3 2 2 5 5 11 14 9 7 7 6 6 7 6 7 7 6 6 6 8 7 7 7 7 5 5 4 2 3 4 5 6 6 5 5 5 5 5 4 4
5 6 7 4 3 1 4 3 3 3 3 3 6 9 12 11 9 8 8 7 7 6 6 6 6 6 5 5 4 3 3 3 3 2 2 2 2 2 3 3 4 4 4 4 4 4 4 3 1
6 6 5 4 5 3 1 2 3 4 5 6 9 12 11 10 9 8 8 7 7 6 6 6 6 5 4 3 3 2 2 2 2 3 2 2 2 1 1 1 1 1 2 2 3 2 1 1 1
8 7 6 3 3 2 1 2 3 4 3 2 7 13 12 10 10 9 8 8 7 7 6 6 6 5 4 3 2 2 2 2 2 2 2 2 2 2 2 1 1 1 1 1 2 1 2 2 2
12 8 5 2 1 2 3 4 3 4 1 2 6 9 11 10 8 7 7 8 8 8 7 6 6 5 4 3 2 3 2 2 2 2 2 3 2 2 1 1 1 1 1 1 2 2 2 2 2
6 8 7 5 5 5 5 6 6 5 4 5 6 7 9 9 9 8 7 8 8 8 7 6 6 5 4 3 2 2 2 2 2 2 2 2 2 2 1 1 1 1 1 1 1 2 2 2 2
3 5 7 7 8 5 4 8 11 8 6 7 8 8 9 9 8 8 8 7 9 8 8 7 6 6 5 4 3 2 2 2 2 2 2 2 2 2 1 1 1 1 1 2 2 2 2 2 2
5 6 7 8 10 7 6 9 7 8 9 9 8 8 8 8 8 7 8 7 8 9 8 7 6 6 5 4 3 2 2 2 2 2 2 2 2 2 1 1 1 1 1 1 2 2 2 2 2
7 8 9 7 10 8 8 7 5 6 8 8 8 8 8 8 9 8 8 8 8 9 9 8 6 6 5 4 3 3 2 2 2 2 1 1 1 1 1 1 1 1 1 1 2 2 2 2 3
9 9 9 9 9 8 9 8 5 5 6 8 8 7 8 8 8 8 8 8 8 8 9 8 7 6 5 4 3 2 2 1 2 1 1 1 1 1 1 1 1 2 1 1 2 2 2 2 3
6 7 8 4 5 6 8 9 8 7 7 7 7 7 8 8 8 8 8 8 8 8 9 8 7 6 5 4 3 2 2 1 1 1 1 1 1 1 1 1 1 1 1 1 2 2 2 3 2
10 8 6 1 4 3 5 9 8 8 9 8 7 7 8 7 7 8 8 8 8 9 8 8 7 7 6 4 3 2 2 1 1 1 1 1 1 0 0 0 1 1 1 2 2 2 2 2 2
11 9 7 3 2 3 4 8 10 9 10 8 7 6 6 8 8 8 7 7 8 8 9 8 7 7 6 5 3 3 2 1 1 0 0 1 1 0 0 1 1 1 1 2 2 2 2 3 2
9 6 6 3 2 4 5 5 5 7 9 9 8 7 6 6 7 8 8 8 7 7 7 7 7 6 6 5 5 5 3 2 2 1 1 1 1 1 1 1 1 2 1 2 3 2 2 2 3
3 1 3 3 4 4 5 4 6 6 7 8 7 7 6 5 6 8 8 8 7 6 6 6 7 6 5 5 5 4 2 1 1 1 1 1 1 1 2 2 2 2 2 2 3 3 3 2 3
3 2 1 2 2 6 8 7 6 5 7 8 7 6 6 5 5 7 8 8 7 6 6 6 6 5 5 5 4 4 3 2 2 1 2 1 1 1 2 2 2 2 2 3 3 4 4 4 4
5 5 3 2 4 8 6 7 5 2 3 6 7 7 6 6 5 7 8 8 7 7 6 5 6 5 5 5 4 3 3 3 3 2 2 1 1 1 2 2 2 3 3 4 4 4 5 5 5
8 7 6 7 6 4 5 7 3 3 4 5 6 6 6 6 5 6 7 7 7 7 7 6 6 5 5 4 4 3 3 2 2 1 1 2 2 2 3 3 3 4 4 4 4 4 5 4 5
7 7 3 1 2 2 5 3 2 3 4 5 6 6 5 5 5 6 7 7 7 6 6 5 5 5 5 4 3 3 3 2 1 1 1 1 2 2 2 3 4 4 5 5 5 4 5 5 5
3 4 3 3 4 5 5 7 6 8 7 6 6 6 5 5 5 6 6 6 6 5 4 4 4 4 4 4 3 2 2 2 2 1 2 2 2 2 3 4 4 5 5 5 5 5 5 6 6
5 5 5 4 4 4 3 2 2 7 8 7 6 6 6 5 5 5 5 6 6 5 4 3 3 3 3 3 2 2 1 1 1 1 2 2 2 2 3 4 4 5 5 5 5 6 6 6 7
4 5 6 5 5 3 1 1 3 7 7 7 6 7 6 6 5 4 5 5 5 5 4 3 3 3 3 2 1 1 1 1 1 1 2 2 3 3 3 4 4 5 5 5 6 7 6 6 7
Wind_Direction
262 246 233 231 229 232 239 242 238 96 46 29 23 30 34 36 43 109 154 106 107 110 110 102 97 95 92 91 90 88 86 85 84 83 83 82 80 78 78 78 74 71 70 68 67 63 63 61 58
265 234 226 231 235 232 235 225 221 116 88 60 32 31 55 79 81 102 113 107 110 110 107 104 100 97 94 93 91 89 87 85 83 83 82 82 80 77 76 76 74 69 66 64 61 57 55 57 55
262 238 224 224 229 233 246 164 129 95 96 110 98 27 45 81 99 108 121 118 108 106 103 104 103 100 96 94 91 88 86 84 83 83 82 81 79 76 72 72 72 69 65 62 58 52 49 51 50
235 217 241 241 243 242 263 81 89 104 116 141 126 93 68 38 81 113 129 119 109 106 104 105 103 102 98 94 91 88 86 84 83 82 80 79 77 74 72 69 69 67 64 61 56 51 47 46 43
240 227 225 236 245 254 257 100 109 144 155 170 154 111 90 72 95 117 128 119 113 107 107 108 102 100 97 95 92 89 86 84 83 81 80 78 76 75 72 68 67 65 63 58 53 48 44 41 38
226 234 227 228 233 232 222 139 156 190 173 157 147 117 107 124 120 129 125 116 110 110 111 109 103 100 96 94 92 89 87 85 82 81 80 79 77 74 70 67 66 64 62 58 53 47 43 38 32
241 245 247 247 235 214 190 163 183 191 182 166 145 116 125 139 131 130 119 111 110 113 116 117 113 104 97 94 92 90 89 86 83 80 80 80 78 75 71 65 63 61 58 54 49 43 41 35 28
259 268 248 250 246 227 155 157 177 186 180 109 113 134 143 143 138 128 116 108 110 114 119 124 122 116 108 100 96 94 91 90 88 84 83 83 82 77 72 66 60 56 52 46 42 37 32 26 20
265 254 248 240 239 198 132 151 130 44 62 68 50 60 123 132 138 129 122 115 115 115 116 117 115 114 113 113 109 105 99 95 95 90 80 78 78 82 74 69 61 54 47 37 32 27 21 13 5
220 241 249 296 340 63 127 151 145 146 164 142 99 88 116 134 144 148 147 142 134 131 123 114 112 112 112 113 114 113 105 102 89 85 76 69 64 67 82 80 65 47 35 23 18 12 8 8 352
209 239 260 298 6 14 81 167 179 189 199 182 156 143 143 151 158 161 157 149 144 134 120 113 110 109 105 103 110 99 93 88 75 73 70 68 62 58 61 63 41 25 25 11 355 354 341 347 354
235 241 263 287 25 342 258 240 223 223 227 112 141 148 154 164 171 171 165 153 142 130 122 114 111 108 105 104 107 103 96 88 79 60 57 68 56 41 38 50 32 26 18 2 347 331 346 348 350
233 248 249 263 224 266 268 253 255 243 223 106 118 143 162 172 175 172 161 148 137 133 131 126 120 115 109 103 105 98 99 97 92 76 53 61 69 53 40 35 24 19 13 3 343 341 344 339 333
226 235 240 229 219 224 233 240 235 230 197 167 157 166 173 176 177 170 164 152 143 140 138 131 129 125 119 109 103 102 101 98 84 78 67 59 63 59 43 31 20 6 354 345 337 328 326 316 317
251 246 240 224 214 210 217 241 228 218 201 194 181 181 180 180 178 173 165 156 148 144 138 136 136 130 128 124 120 110 112 104 99 91 74 63 56 48 44 30 13 347 343 340 333 325 331 324 328
225 229 232 213 201 192 199 244 220 196 197 205 195 188 182 181 180 172 161 154 146 143 140 141 141 136 134 128 126 117 111 106 107 104 89 71 55 51 37 28 357 340 347 334 317 323 332 324 321
211 221 220 210 190 176 199 244 214 177 187 203 200 192 181 179 180 170 161 156 151 147 143 141 139 140 136 129 122 110 106 107 105 99 96 85 62 47 45 17 340 352 347 326 318 332 320 311 307
202 215 222 209 180 185 205 235 220 195 195 204 202 194 186 182 180 167 162 156 148 141 139 142 140 141 135 129 117 104 102 106 102 103 104 90 72 47 31 5 344 349 342 327 322 314 316 303 296
253 240 235 204 155 188 220 237 227 213 209 210 207 195 189 185 171 162 158 151 142 140 142 148 148 148 139 136 135 131 136 138 116 122 124 103 72 42 44 357 336 332 322 306 307 310 313 308 309
257 259 255 177 137 181 241 253 241 217 213 207 207 201 190 179 165 159 155 153 150 148 150 150 151 148 144 144 143 142 140 147 144 140 134 131 105 1 332 335 298 306 313 313 308 309 303 302 321
234 241 243 220 149 228 257 265 234 219 210 208 207 205 191 175 166 158 155 154 151 152 156 154 150 149 147 142 128 117 96 85 74 141 177 179 168 223 268 285 290 294 288 289 288 289 295 293 300
229 232 241 216 193 232 199 263 232 203 198 199 199 196 195 179 163 157 157 153 153 152 147 145 148 149 146 140 137 141 148 171 198 181 197 232 207 221 245 260 277 283 285 286 290 298 282 282 289
218 231 220 218 238 266 226 244 258 201 194 192 187 185 183 172 158 155 155 151 145 135 138 143 146 146 143 142 146 152 161 180 165 156 187 234 237 231 240 243 260 271 275 277 283 287 280 267 265
154 124 150 240 244 249 219 215 255 210 190 174 168 167 164 158 150 144 143 137 130 128 132 140 145 147 147 146 151 158 163 160 161 190 209 233 246 247 248 248 252 262 268 270 272 273 271 267 265
177 152 145 185 217 239 204 207 234 195 144 149 153 157 152 150 145 139 138 139 137 138 142 144 146 147 148 148 157 164 167 166 183 200 207 227 256 269 260 269 261 263 263 265 267 270 266 264 262
199 191 177 184 205 219 192 216 215 129 100 102 115 123 131 135 131 129 135 138 139 141 143 146 148 151 153 157 164 166 162 161 182 199 218 234 243 251 254 263 268 269 267 271 269 268 266 265 262
183 219 248 282 284 234 218 194 186 122 118 121 119 115 122 128 122 123 124 127 132 138 143 147 149 152 155 158 156 161 158 159 179 203 223 243 248 265 264 267 268 270 270 269 270 267 270 270 263
217 188 173 185 196 227 223 202 192 172 172 149 139 134 126 117 117 120 123 123 126 132 136 141 143 146 147 147 157 162 169 174 183 206 224 238 250 264 269 273 272 273 273 272 270 271 269 272 272
188 198 195 192 220 205 225 216 57 147 147 143 141 135 126 118 116 116 122 121 120 125 133 135 131 122 127 144 155 159 170 179 190 219 230 237 252 257 267 276 279 280 279 278 277 274 275 275 276
218 204 186 180 222 221 236 269 55 97 105 108 115 116 116 117 111 107 111 116 121 126 130 128 125 124 133 135 140 149 157 174 217 241 253 252 256 259 266 276 281 283 287 286 286 283 279 276 277